[[{"header":{"parameterUnit":"m.s-1","parameterCategory":1,"la1":30.2991,"la2":30.254,"lo1":-89.0895,"lo2":-89.0444,"dy":0.0017,"dx":0.0017,"nx":28,"ny":28,"refTime":"2024-07-04T09:00:00:Z","depth":0,"parameterNumber":2,"parameterNumberName":"U-component_of_WINDS"},"data":[0,0,0,0,0,0,0,0,0,0,0,0,0,0,0,0,0,0,0,0,0,0,0,0,0,0,0,0,0,0,0,0,0,0,0,0,0,0,0,0,0,0,0,0,0,0,0,0,0,0,0,0,0,0,0,0,0,0,3.0248,3.0248,0,3.021,3.021,3.0209,3.0093,3.0091,3.0088,3.0086,3.0047,3.0049,3.005,0,0,0,0,0,0,0,0,0,0,0,0,0,3.0221,3.0222,3.0249,3.0248,3.0248,3.021,3.021,3.0209,3.0094,3.0091,3.0087,3.0085,3.0047,3.0048,3.005,0,0,0,0,0,0,0,0,0,0,0,0,0,3.0213,3.0222,3.0249,3.0185,3.0179,3.021,3.021,3.0209,3.0094,3.009,3.0087,3.0083,3.0046,3.0048,3.005,3.014,0,0,3.0057,3.0057,0,0,0,0,0,0,0,0,3.0213,3.0214,3.0195,3.019,3.0183,3.0152,3.0185,3.0186,3.0095,3.0127,3.0086,3.0081,3.0085,3.0084,3.0085,3.0138,3.0136,3.0057,3.0058,3.0059,3.0059,0,0,0,0,0,0,0,3.0214,3.0215,3.0233,3.0195,3.0188,3.0159,3.0153,3.0185,3.0128,3.0124,3.0115,3.0112,3.0081,3.0084,3.0084,3.0136,3.0057,3.0058,3.006,3.0061,3.0255,3.0258,0,0,0,0,0,0,3.0224,3.0216,3.0234,3.0232,3.0189,3.0162,3.0156,3.0166,3.0127,3.0118,3.0115,3.0107,3.0082,3.0081,3.0082,3.018,3.0059,3.0061,3.0062,3.0251,3.0256,3.026,0,0,0,0,0,0,3.0223,3.0226,3.0236,3.0222,3.0221,3.0167,3.0179,3.0167,3.0169,3.0121,3.011,3.0128,3.0079,3.0079,3.0125,3.0177,3.0062,3.0063,3.0246,3.0252,3.0258,3.038,0,0,0,0,0,0,3.0223,3.0227,3.0261,3.0223,3.0222,3.0281,3.0182,3.0169,3.0173,3.0162,3.013,3.0121,3.0076,3.0123,3.0127,3.0178,3.0065,3.0241,3.0249,3.0256,3.0371,3.0389,3.0405,0,0,0,0,0,3.0223,3.0298,3.0263,3.0266,3.0263,3.0284,3.0283,3.0229,3.0178,3.0211,3.0179,3.0122,3.0172,3.0128,3.0132,3.0185,3.0238,3.0247,3.0255,3.0363,3.0386,3.0405,0,0,0,0,0,0,3.0344,3.0292,3.0253,3.0318,3.0306,3.0264,3.0304,3.0255,3.0258,3.0247,3.018,3.0174,3.0228,3.0212,3.0164,3.0267,3.0195,3.0205,3.0276,3.0296,3.0313,3.0315,3.0067,0,0,0,0,0,3.0378,3.04,3.0353,3.0415,3.0411,3.0359,3.0366,3.0325,3.031,3.0305,3.0277,3.0265,3.0276,3.0286,3.0295,3.0369,3.0358,3.0406,3.0423,3.0438,3.0446,3.048,3.05,3.0289,3.0289,3.0289,0,0,3.045,3.0424,3.0442,3.0439,3.0425,3.0447,3.0356,3.0385,3.04,3.0309,3.035,3.0329,3.0311,3.037,3.0395,3.0357,3.0503,3.0449,3.0461,3.0461,3.0491,3.0511,3.0529,3.0295,3.0294,3.0293,0,0,3.059,3.0574,3.0622,3.0609,3.0588,3.0553,3.0565,3.053,3.0512,3.0551,3.0483,3.0501,3.0524,3.0512,3.051,3.0643,3.059,3.0648,3.0736,3.077,3.0787,3.0801,3.0845,3.0862,3.0658,3.0658,3.0658,0,3.0681,3.0712,3.0653,3.0685,3.0685,3.0603,3.065,3.0641,3.0625,3.0626,3.0584,3.0609,3.0592,3.0645,3.0677,3.0679,3.0688,3.065,3.0789,3.0803,3.0815,3.0857,3.0874,3.0665,3.0664,3.0663,3.0663,0,3.0823,3.0846,3.0887,3.0871,3.0876,3.0916,3.0862,3.0874,3.0832,3.0801,3.0841,3.0816,3.0817,3.0827,3.0788,3.0875,3.0851,3.0801,3.0727,3.0843,3.0881,3.0897,3.0675,3.0672,3.067,3.0669,0,0,3.1039,3.0988,3.1004,3.0994,3.0964,3.098,3.1016,3.1015,3.1025,3.1017,3.1043,3.1063,3.1015,3.1012,3.0971,3.1001,3.1104,3.0946,3.0944,3.0973,3.1193,3.1229,3.1249,3.1069,3.1072,3.1074,3.1194,0,3.1168,3.1224,3.1171,3.1238,3.1256,3.1178,3.1208,3.1192,3.1164,3.1175,3.1143,3.1157,3.1095,3.1092,3.1119,3.1086,3.1147,3.1077,3.1091,3.1092,3.1094,3.1269,3.1308,3.1421,3.1208,3.1211,3.1213,0,3.1327,3.1324,3.1391,3.1354,3.1359,3.1388,3.1381,3.1393,3.1374,3.135,3.1346,3.1295,3.1326,3.1255,3.1295,3.1248,3.1251,3.1236,3.1239,3.1235,3.1157,3.1267,3.1457,3.1473,3.1236,3.1234,3.1233,0,3.1473,3.1485,3.1526,3.1521,3.148,3.15,3.1484,3.146,3.1462,3.1457,3.1457,3.1457,3.1456,3.1456,3.1406,3.136,3.145,3.1377,3.143,3.1431,3.145,3.1449,3.164,3.1458,3.1458,3.1458,3.1457,0,3.1621,3.1665,3.159,3.1615,3.1661,3.16,3.1646,3.1622,3.1601,3.1619,3.1553,3.1572,3.1505,3.1517,3.1478,3.1514,3.1515,3.1496,3.1485,3.15,3.1502,3.1499,3.1488,3.1462,3.1461,3.146,3.146,0,3.179,3.1743,3.1781,3.1738,3.1728,3.1764,3.1726,3.1747,3.1714,3.1737,3.1739,3.1687,3.1696,3.1647,3.1648,3.1621,3.1676,3.1653,3.1682,3.1674,3.1728,3.1723,3.1921,3.1942,3.1751,3.1753,3.1754,0,3.1887,3.1918,3.1877,3.1884,3.187,3.1883,3.1884,3.1825,3.1829,3.1807,3.183,3.1833,3.1833,3.1851,3.1813,3.1812,3.1787,3.1856,3.1786,3.1799,3.1783,3.1781,3.1782,3.187,3.1872,3.1874,3.1876,0,3.2061,3.2035,3.2039,3.2034,3.2037,3.2031,3.202,3.203,3.1965,3.1973,3.198,3.198,3.198,3.1983,3.1975,3.1957,3.1905,3.1898,3.191,3.1924,3.1939,3.1928,3.1718,3.1893,3.1892,3.189,3.1889,3.1889,3.2194,3.2216,3.219,3.2196,3.2182,3.2172,3.2188,3.2157,3.2162,3.2156,3.2121,3.2135,3.2112,3.2095,3.2082,3.2091,3.2058,3.2076,3.208,3.2084,3.2093,3.194,3.209,3.209,3.2089,3.2089,3.2088,0,3.2361,3.234,3.2346,3.2332,3.2336,3.2287,3.2272,3.2279,3.2291,3.2274,3.2274,3.2282,3.2284,3.2246,3.2244,3.2258,3.2234,3.2259,3.2256,3.2252,3.2124,3.2113,3.2278,3.2278,3.2278,3.2278,3.2278,3.2278,3.2449,3.2483,3.2454,3.248,3.2458,3.247,3.2466,3.2456,3.2441,3.2453,3.2454,3.2429,3.2403,3.2397,3.2397,3.2385,3.2386,3.2419,3.2399,3.228,3.2261,3.2244,3.2232,3.242,3.242,3.2525,3.2526,3.2527]},{"header":{"parameterUnit":"m.s-1","parameterCategory":1,"la1":30.2991,"la2":30.254,"lo1":-89.0895,"lo2":-89.0444,"dy":0.0017,"dx":0.0017,"nx":28,"ny":28,"refTime":"2024-07-04T09:00:00:Z","depth":0,"parameterNumber":3,"parameterNumberName":"V-component_of_WINDS"},"data":[0,0,0,0,0,0,0,0,0,0,0,0,0,0,0,0,0,0,0,0,0,0,0,0,0,0,0,0,0,0,0,0,0,0,0,0,0,0,0,0,0,0,0,0,0,0,0,0,0,0,0,0,0,0,0,0,0,0,3.9713,3.9714,0,3.9836,3.9838,3.9839,3.9827,3.9825,3.9823,3.9821,3.9946,3.9951,3.9956,0,0,0,0,0,0,0,0,0,0,0,0,0,3.9464,3.9468,3.9713,3.9714,3.9716,3.9836,3.9838,3.9839,3.9827,3.9825,3.9822,3.982,3.9944,3.995,3.9956,0,0,0,0,0,0,0,0,0,0,0,0,0,3.9578,3.947,3.9713,3.9724,3.9727,3.9836,3.9838,3.984,3.9828,3.9825,3.9822,3.9819,3.9942,3.995,3.9957,4.0062,0,0,3.9981,3.9984,0,0,0,0,0,0,0,0,3.9571,3.9587,3.9721,3.9724,3.9726,3.9813,3.9796,3.9914,3.9828,3.9789,3.9821,3.9818,3.9904,3.9915,3.9944,4.0068,4.0073,3.9981,3.9986,3.9989,3.9991,0,0,0,0,0,0,0,3.9564,3.9582,3.9762,3.9723,3.9726,3.9722,3.9736,3.9818,3.9861,3.9792,3.9792,3.9807,3.9905,3.9937,3.9947,4.0075,3.9981,3.9988,3.9993,3.9996,4.0289,4.0292,0,0,0,0,0,0,3.9553,3.9575,3.9758,3.9765,3.964,3.9729,3.9744,3.9788,3.986,3.9868,3.9809,3.9806,3.9925,3.9938,3.9951,4.0077,3.9989,3.9996,4.0001,4.0286,4.029,4.0293,0,0,0,0,0,0,3.9548,3.957,3.9753,3.967,3.9693,3.9737,3.9787,3.9792,3.9824,3.9873,3.988,3.9834,3.9923,3.994,4.0034,4.0081,4.0,4.0007,4.0282,4.0287,4.0291,4.0331,0,0,0,0,0,0,3.9541,3.9568,3.9609,3.9671,3.9698,3.9835,3.979,3.9797,3.9837,3.9834,3.9898,3.9906,3.9922,4.0023,4.0042,4.009,4.0013,4.0278,4.0284,4.029,4.0326,4.0337,4.0346,0,0,0,0,0,3.9532,3.9615,3.9611,3.9633,3.975,3.9838,3.9853,3.987,3.9841,3.9882,3.9913,3.9904,4.0073,4.0033,4.0054,4.0105,4.0275,4.0282,4.0289,4.0321,4.0334,4.0346,0,0,0,0,0,0,3.9557,3.9624,3.962,3.9726,3.9776,3.9835,3.9888,3.9884,3.9943,3.9938,3.9957,3.9971,4.0065,4.0095,4.0048,4.021,4.017,4.0182,4.0187,4.02,4.021,4.02,4.0019,0,0,0,0,0,3.9575,3.9641,3.9696,3.9784,3.9809,3.9844,3.9883,3.9892,3.9945,3.9966,4.0004,4.0055,4.0119,4.0161,4.0224,4.033,4.0343,4.0376,4.0386,4.0394,4.0404,4.046,4.0475,4.0317,4.0317,4.0317,0,0,3.9613,3.9657,3.9698,3.979,3.983,3.9897,3.9862,3.9935,3.9984,3.9977,4.0067,4.0097,4.0155,4.0255,4.0301,4.0282,4.045,4.0403,4.0409,4.0415,4.0469,4.0484,4.0497,4.0322,4.0321,4.032,0,0,3.9715,3.9756,3.9833,3.9874,3.9935,3.9958,3.9976,4.0036,4.0055,4.0147,4.0142,4.02,4.0312,4.0352,4.0388,4.0504,4.0497,4.0524,4.0576,4.0631,4.0643,4.0655,4.0694,4.0709,4.0534,4.0534,4.0534,0,3.9754,3.9856,3.9873,3.9947,3.9986,3.9983,4.006,4.0099,4.0177,4.0204,4.0182,4.0321,4.0359,4.0468,4.0496,4.0526,4.0546,4.0516,4.064,4.0652,4.0662,4.07,4.0716,4.0536,4.0536,4.0536,4.0536,0,3.9899,3.997,4.0024,4.01,4.0146,4.0221,4.0249,4.0293,4.0298,4.0323,4.0415,4.0461,4.0532,4.0558,4.0564,4.0667,4.0654,4.0636,4.0597,4.068,4.0716,4.0731,4.054,4.0539,4.0539,4.0538,0,0,4.0021,4.0105,4.0125,4.0158,4.0224,4.0278,4.0352,4.0422,4.0459,4.0512,4.0574,4.0667,4.0651,4.0691,4.0701,4.075,4.0837,4.0726,4.0728,4.0744,4.0951,4.0963,4.098,4.0832,4.0835,4.0838,4.0946,0,4.0129,4.0261,4.0278,4.0394,4.0458,4.0455,4.0519,4.0566,4.0591,4.0648,4.0675,4.074,4.0715,4.0738,4.0786,4.0816,4.0878,4.0809,4.0888,4.0891,4.0873,4.0999,4.1012,4.1112,4.096,4.0962,4.0964,0,4.0273,4.033,4.0452,4.0508,4.0536,4.0593,4.0657,4.0713,4.0765,4.0779,4.0823,4.0827,4.0902,4.086,4.0963,4.0915,4.0949,4.0968,4.0972,4.098,4.0932,4.1008,4.1144,4.1158,4.0987,4.0985,4.0983,0,4.0347,4.0455,4.0542,4.057,4.0638,4.0679,4.0709,4.0759,4.0798,4.0854,4.088,4.0944,4.0978,4.1027,4.1047,4.1015,4.1148,4.1109,4.1161,4.116,4.1188,4.1186,4.133,4.1212,4.1212,4.1212,4.1212,0,4.0465,4.0539,4.0576,4.0629,4.0712,4.0731,4.0812,4.084,4.0884,4.0942,4.0943,4.0997,4.1022,4.1079,4.1095,4.1177,4.1193,4.1205,4.1208,4.1205,4.1203,4.1226,4.1219,4.1216,4.1215,4.1214,4.1214,0,4.0562,4.0589,4.0683,4.074,4.0755,4.0814,4.0861,4.0912,4.0936,4.1009,4.1027,4.1064,4.1131,4.1156,4.1239,4.125,4.1343,4.1342,4.1326,4.1326,4.1376,4.1371,4.154,4.1562,4.1431,4.1432,4.1433,0,4.0634,4.0692,4.0754,4.0793,4.0824,4.0887,4.0927,4.0948,4.099,4.1053,4.1096,4.1163,4.1218,4.1325,4.1359,4.1421,4.142,4.1475,4.143,4.1423,4.1419,4.1415,4.142,4.1483,4.1484,4.1486,4.1486,0,4.076,4.077,4.0829,4.0892,4.094,4.0991,4.1041,4.1072,4.11,4.1147,4.1216,4.1258,4.1342,4.1408,4.1472,4.1501,4.1498,4.1501,4.1516,4.1512,4.1499,4.1505,4.1347,4.1496,4.1495,4.1495,4.1494,4.1494,4.0846,4.0896,4.0947,4.1012,4.1051,4.1096,4.1146,4.1176,4.1234,4.1303,4.1312,4.1386,4.1435,4.1521,4.1553,4.161,4.1596,4.1618,4.1623,4.1628,4.1631,4.1491,4.1622,4.1622,4.1622,4.1622,4.1621,0,4.097,4.1002,4.1062,4.113,4.1181,4.1174,4.1228,4.127,4.1335,4.1382,4.1435,4.1514,4.1577,4.1616,4.1679,4.1718,4.1718,4.1733,4.173,4.1737,4.1641,4.1621,4.1732,4.1732,4.1732,4.1732,4.1732,4.1732,4.104,4.1123,4.114,4.1242,4.1274,4.1346,4.1377,4.1418,4.1455,4.1543,4.1596,4.1621,4.1664,4.173,4.1788,4.1797,4.182,4.1837,4.1845,4.1755,4.1744,4.1733,4.1714,4.1842,4.1842,4.1935,4.1936,4.1937]}]]